TimeEST,TemperatureF,Dew PointF,Humidity,Sea Level PressureIn,VisibilityMPH,Wind Direction,Wind SpeedMPH,Gust SpeedMPH,PrecipitationIn,Events,Conditions,WindDirDegrees,DateUTC
12:54 AM,26.1,8.1,47,29.77,-9999.0,North,9.2,19.6,N/A,,Unknown,350,2013-02-17 05:54:00
1:54 AM,26.1,8.1,47,29.77,-9999.0,North,8.1,17.3,N/A,,Unknown,350,2013-02-17 06:54:00
2:54 AM,26.1,8.1,47,29.75,-9999.0,North,8.1,-,N/A,,Unknown,360,2013-02-17 07:54:00
3:54 AM,25.0,6.1,45,29.75,-9999.0,North,5.8,-,N/A,,Unknown,350,2013-02-17 08:54:00
4:54 AM,25.0,3.9,41,29.75,-9999.0,North,8.1,17.3,N/A,,Unknown,360,2013-02-17 09:54:00
5:54 AM,24.1,3.9,42,29.75,-9999.0,Variable,6.9,-,N/A,,Unknown,0,2013-02-17 10:54:00
6:54 AM,23.0,3.0,42,29.74,-9999.0,North,10.4,16.1,N/A,,Unknown,360,2013-02-17 11:54:00
7:54 AM,21.9,1.9,42,29.76,-9999.0,Variable,5.8,16.1,N/A,,Unknown,0,2013-02-17 12:54:00
8:54 AM,24.1,1.9,38,29.76,-9999.0,North,6.9,21.9,N/A,,Unknown,350,2013-02-17 13:54:00
9:54 AM,25.0,1.9,37,29.76,-9999.0,NNW,10.4,19.6,N/A,,Unknown,330,2013-02-17 14:54:00
10:54 AM,27.0,3.0,36,29.77,-9999.0,NNW,11.5,21.9,N/A,,Unknown,330,2013-02-17 15:54:00
11:54 AM,27.0,1.9,34,29.77,-9999.0,North,12.7,35.7,N/A,,Unknown,360,2013-02-17 16:54:00
12:54 PM,26.1,1.9,35,29.77,-9999.0,NNW,12.7,25.3,N/A,,Unknown,340,2013-02-17 17:54:00
1:54 PM,26.1,1.0,34,29.79,-9999.0,NNW,15.0,33.4,N/A,,Unknown,330,2013-02-17 18:54:00
2:54 PM,25.0,-0.0,34,29.81,-9999.0,North,12.7,21.9,N/A,,Unknown,350,2013-02-17 19:54:00
3:54 PM,24.1,6.1,46,29.83,-9999.0,NNW,13.8,25.3,N/A,,Unknown,340,2013-02-17 20:54:00
4:54 PM,23.0,8.1,53,29.86,-9999.0,NNW,11.5,17.3,N/A,,Unknown,340,2013-02-17 21:54:00
5:54 PM,21.0,8.1,57,29.90,-9999.0,North,9.2,21.9,N/A,,Unknown,350,2013-02-17 22:54:00
6:54 PM,19.9,-0.0,42,29.93,-9999.0,NNW,9.2,27.6,N/A,,Unknown,340,2013-02-17 23:54:00
7:54 PM,19.0,-0.9,42,29.97,-9999.0,NNW,11.5,21.9,N/A,,Unknown,340,2013-02-18 00:54:00
8:54 PM,17.1,-0.9,45,30.02,-9999.0,North,8.1,18.4,N/A,,Unknown,350,2013-02-18 01:54:00
9:54 PM,16.0,-0.9,47,30.04,-9999.0,Variable,5.8,-,N/A,,Unknown,0,2013-02-18 02:54:00
10:54 PM,16.0,-0.9,47,30.04,-9999.0,NNW,12.7,24.2,N/A,,Unknown,330,2013-02-18 03:54:00
11:54 PM,16.0,-2.0,45,30.06,-9999.0,Variable,5.8,26.5,N/A,,Unknown,0,2013-02-18 04:54:00